Tracking 17925 objects as of 19-February-2017
HD Live streaming from Space Station
objects crossing your sky now

CZ-3C R/B

Track CZ-3C R/B now!
10-day predictions


NORAD ID: 36591
Int'l Code: 2010-024B
Perigee: 197.5 km
Apogee: 17,739.8 km
Inclination: 20.7 °
Period: 315.1 minutes
Semi major axis: 15339 km
RCS: 15.0139 m2 (large)
Launch date: June 2, 2010
Source: People's Republic of China (PRC)
Launch site: Xichang Space Center, China (XSC)

Note: This is a ROCKET BODY
Your satellite tracking list
Your tracking list is empty





NASA's NSSDC Master Catalog

Two Line Element Set (TLE):
1 36591U 10024B   17050.02583615  .00042365  44139-6  87266-3 0  9993
2 36591  20.7369   9.4406 5717962 104.9990 322.1091  4.56960410 81311
Source of the keplerian elements: AFSPC